When you browse on this site, cookies collect data to enhance your experience and personalize the content and advertising you see.
Visit our Privacy Policy to learn more. By continuing to use the site, you agree to this use of cookies and data.
  • In Sweden
  • List of Countries
  • For 7 days
  • Water Temperature
  • Weather Map
  • Weather Widgets
  • user-avatar
    Login

    Hourly Weather Dobrovillya

    Today, 22 November, Friday

    Time Temperature Precipitation Wind Pressure Humidity
    00:00 -12°C° 0 mm 7 mps 765 mmHg 35%
    01:00 -12°C° 0 mm 7 mps 765 mmHg 37%
    02:00 -12°C° 0 mm 7 mps 765 mmHg 39%
    03:00 -13°C° 0 mm 7 mps 765 mmHg 42%
    04:00 -13°C° 0 mm 8 mps 765 mmHg 45%
    05:00 -13°C° 0 mm 8 mps 765 mmHg 48%
    06:00 -13°C° 0 mm 8 mps 765 mmHg 48%
    07:00 -12°C° 0 mm 8 mps 765 mmHg 47%
    08:00 -12°C° 0 mm 8 mps 765 mmHg 47%
    09:00 -11°C° 0 mm 8 mps 765 mmHg 42%
    10:00 -8°C° 0 mm 8 mps 765 mmHg 37%
    11:00 -7°C° 0 mm 8 mps 764 mmHg 33%
    12:00 -6°C° 0 mm 8 mps 764 mmHg 32%
    13:00 -6°C° 0 mm 8 mps 764 mmHg 31%
    14:00 -5°C° 0 mm 8 mps 763 mmHg 30%
    15:00 -6°C° 0 mm 8 mps 763 mmHg 32%
    16:00 -7°C° 0 mm 8 mps 763 mmHg 35%
    17:00 -8°C° 0 mm 7 mps 763 mmHg 38%
    18:00 -8°C° 0 mm 7 mps 763 mmHg 38%
    19:00 -9°C° 0 mm 7 mps 763 mmHg 39%
    20:00 -9°C° 0 mm 7 mps 763 mmHg 39%
    21:00 -9°C° 0 mm 7 mps 763 mmHg 39%
    22:00 -9°C° 0 mm 6 mps 763 mmHg 39%
    23:00 -10°C° 0 mm 6 mps 763 mmHg 39%

    Tomorrow, 23 November, Saturday

    Time Temperature Precipitation Wind Pressure Humidity
    00:00 -10°C° 0 mm 6 mps 763 mmHg 39%
    01:00 -10°C° 0 mm 6 mps 762 mmHg 40%
    02:00 -10°C° 0 mm 6 mps 762 mmHg 40%
    03:00 -11°C° 0 mm 7 mps 762 mmHg 40%
    04:00 -11°C° 0 mm 7 mps 762 mmHg 41%
    05:00 -11°C° 0 mm 7 mps 762 mmHg 42%
    06:00 -11°C° 0 mm 7 mps 762 mmHg 40%
    07:00 -11°C° 0 mm 7 mps 762 mmHg 39%
    08:00 -11°C° 0 mm 7 mps 762 mmHg 38%
    09:00 -8°C° 0 mm 7 mps 762 mmHg 34%
    10:00 -6°C° 0 mm 8 mps 762 mmHg 29%
    11:00 -5°C° 0 mm 8 mps 761 mmHg 25%
    12:00 -4°C° 0 mm 8 mps 761 mmHg 24%
    13:00 -2°C° 0 mm 8 mps 761 mmHg 23%
    14:00 -2°C° 0 mm 8 mps 760 mmHg 22%
    15:00 -3°C° 0 mm 7 mps 760 mmHg 24%
    16:00 -4°C° 0 mm 7 mps 760 mmHg 27%
    17:00 -5°C° 0 mm 6 mps 760 mmHg 30%
    18:00 -6°C° 0 mm 6 mps 760 mmHg 31%
    19:00 -6°C° 0 mm 6 mps 760 mmHg 32%
    20:00 -6°C° 0 mm 6 mps 760 mmHg 33%
    21:00 -8°C° 0 mm 6 mps 760 mmHg 33%
    22:00 -8°C° 0 mm 6 mps 760 mmHg 34%
    23:00 -8°C° 0 mm 6 mps 760 mmHg 34%

    Day after tomorrow, 24 November, Sunday

    Time Temperature Precipitation Wind Pressure Humidity
    00:00 -7°C° 0 mm 5 mps 760 mmHg 36%
    01:00 -7°C° 0 mm 5 mps 760 mmHg 37%
    02:00 -7°C° 0 mm 5 mps 760 mmHg 38%
    03:00 -7°C° 0 mm 5 mps 760 mmHg 40%
    04:00 -8°C° 0 mm 6 mps 759 mmHg 41%
    05:00 -8°C° 0 mm 6 mps 759 mmHg 43%
    06:00 -8°C° 0 mm 6 mps 759 mmHg 44%
    07:00 -8°C° 0 mm 6 mps 759 mmHg 46%
    08:00 -8°C° 0 mm 6 mps 759 mmHg 47%
    09:00 -5°C° 0 mm 6 mps 759 mmHg 45%
    10:00 -3°C° 0 mm 7 mps 759 mmHg 42%
    11:00 -2°C° 0 mm 7 mps 759 mmHg 39%
    12:00 -1°C° 0 mm 7 mps 758 mmHg 38%
    13:00 -1°C° 0 mm 7 mps 758 mmHg 36%
    14:00 +1°C° 0 mm 6 mps 758 mmHg 34%
    15:00 -2°C° 0 mm 6 mps 758 mmHg 37%
    16:00 -2°C° 0 mm 5 mps 758 mmHg 41%
    17:00 -3°C° 0 mm 4 mps 758 mmHg 44%
    18:00 -4°C° 0 mm 4 mps 758 mmHg 45%
    19:00 -4°C° 0 mm 4 mps 758 mmHg 45%
    20:00 -6°C° 0 mm 5 mps 758 mmHg 46%
    21:00 -5°C° 0 mm 4 mps 758 mmHg 49%
    22:00 -5°C° 0 mm 4 mps 757 mmHg 51%
    23:00 -5°C° 0 mm 4 mps 757 mmHg 53%

    25 November, Monday

    Time Temperature Precipitation Wind Pressure Humidity
    00:00 -5°C° 0 mm 4 mps 757 mmHg 57%
    01:00 -7°C° 0 mm 4 mps 757 mmHg 61%
    02:00 -7°C° 0 mm 4 mps 757 mmHg 65%
    03:00 -7°C° 0 mm 4 mps 757 mmHg 69%
    04:00 -7°C° 0 mm 4 mps 757 mmHg 72%
    05:00 -7°C° 0 mm 4 mps 757 mmHg 76%
    06:00 -7°C° 0 mm 4 mps 757 mmHg 76%
    07:00 -5°C° 0 mm 4 mps 757 mmHg 76%
    08:00 -5°C° 0 mm 4 mps 757 mmHg 76%
    09:00 -4°C° 0 mm 5 mps 757 mmHg 71%
    10:00 -2°C° 0 mm 6 mps 757 mmHg 66%
    11:00 +1°C° 0 mm 6 mps 757 mmHg 61%
    12:00 +1°C° 0 mm 6 mps 756 mmHg 60%
    13:00 +2°C° 0 mm 6 mps 756 mmHg 60%
    14:00 +2°C° 0 mm 6 mps 755 mmHg 59%
    15:00 +1°C° 0 mm 5 mps 755 mmHg 65%
    16:00 -1°C° 0 mm 4 mps 755 mmHg 70%
    17:00 -2°C° 0 mm 4 mps 755 mmHg 75%
    18:00 -2°C° 0 mm 4 mps 755 mmHg 74%
    19:00 -3°C° 0 mm 4 mps 755 mmHg 73%
    20:00 -4°C° 0 mm 5 mps 755 mmHg 72%
    21:00 -3°C° 0 mm 4 mps 755 mmHg 71%
    22:00 -4°C° 0 mm 4 mps 754 mmHg 70%
    23:00 -4°C° 0 mm 4 mps 754 mmHg 69%

    26 November, Tuesday

    Time Temperature Precipitation Wind Pressure Humidity
    00:00 -4°C° 0 mm 4 mps 754 mmHg 70%
    01:00 -4°C° 0 mm 4 mps 754 mmHg 71%
    02:00 -5°C° 0 mm 4 mps 754 mmHg 72%
    03:00 -5°C° 0 mm 4 mps 753 mmHg 72%
    04:00 -5°C° 0 mm 4 mps 753 mmHg 72%
    05:00 -5°C° 0 mm 4 mps 753 mmHg 73%
    06:00 -5°C° 0 mm 4 mps 753 mmHg 73%
    07:00 -6°C° 0 mm 5 mps 753 mmHg 73%
    08:00 -6°C° 0 mm 5 mps 752 mmHg 74%
    09:00 -4°C° 0 mm 5 mps 752 mmHg 73%
    10:00 -2°C° 0 mm 5 mps 752 mmHg 73%
    11:00 -1°C° 0 mm 5 mps 752 mmHg 72%
    12:00 -1°C° 0 mm 5 mps 751 mmHg 74%
    13:00 0°C° 0 mm 5 mps 751 mmHg 76%
    14:00 0°C° 0 mm 5 mps 750 mmHg 78%
    15:00 0°C° 0 mm 5 mps 750 mmHg 79%
    16:00 0°C° 0 mm 4 mps 750 mmHg 81%
    17:00 0°C° 0 mm 4 mps 750 mmHg 83%
    18:00 0°C° 0 mm 4 mps 750 mmHg 85%
    19:00 0°C° 0 mm 4 mps 750 mmHg 87%
    20:00 0°C° 0 mm 4 mps 750 mmHg 89%
    21:00 0°C° 0 mm 4 mps 750 mmHg 89%
    22:00 0°C° 0 mm 4 mps 750 mmHg 90%
    23:00 -1°C° 0 mm 4 mps 750 mmHg 91%

    27 November, Wednesday

    Time Temperature Precipitation Wind Pressure Humidity
    00:00 -1°C° 0 mm 4 mps 750 mmHg 91%
    01:00 -1°C° 0 mm 4 mps 750 mmHg 90%
    02:00 -1°C° 0 mm 4 mps 749 mmHg 90%
    03:00 0°C° 0 mm 3 mps 749 mmHg 90%
    04:00 -1°C° 0 mm 3 mps 749 mmHg 91%
    05:00 -1°C° 0 mm 3 mps 749 mmHg 92%
    06:00 -1°C° 0 mm 3 mps 749 mmHg 91%
    07:00 -1°C° 0 mm 3 mps 750 mmHg 91%
    08:00 0°C° 0 mm 3 mps 750 mmHg 91%
    09:00 +1°C° 0 mm 3 mps 750 mmHg 88%
    10:00 +2°C° 0 mm 3 mps 750 mmHg 85%
    11:00 +3°C° 0 mm 3 mps 750 mmHg 81%
    12:00 +3°C° 0 mm 3 mps 750 mmHg 82%
    13:00 +4°C° 0 mm 2 mps 750 mmHg 82%
    14:00 +4°C° 0 mm 2 mps 749 mmHg 83%
    15:00 +4°C° 0 mm 2 mps 750 mmHg 84%
    16:00 +4°C° 0 mm 2 mps 750 mmHg 85%
    17:00 +4°C° 0 mm 2 mps 750 mmHg 86%
    18:00 +4°C° 0 mm 2 mps 750 mmHg 86%
    19:00 +3°C° 0 mm 3 mps 750 mmHg 87%
    20:00 +2°C° 0 mm 3 mps 750 mmHg 88%
    21:00 +2°C° 0 mm 3 mps 750 mmHg 88%
    22:00 +2°C° 0 mm 3 mps 750 mmHg 89%
    23:00 +3°C° 0 mm 2 mps 750 mmHg 89%
    Show more